| time (UTC) | temp F | wind direction | speed MPH | gust MPH | rain 1hr in | rain 24hr in | rain mn in | humidity % | barometer mb |
| 20260504035517 | 53 | 0 | 9.0 | 16.0 | 0.00 | 0.00 | 0.00 | 46 | 1018.5 |
| 20260504034517 | 53 | 338 | 10.0 | 18.0 | 0.00 | 0.00 | 0.00 | 42 | 1018.1 |
| 20260504033517 | 53 | 0 | 11.0 | 17.0 | 0.00 | 0.00 | 0.00 | 41 | 1017.8 |
| 20260504032518 | 53 | 23 | 9.0 | 17.0 | 0.00 | 0.00 | 0.00 | 40 | 1017.3 |
| 20260504031600 | 54 | 23 | 8.0 | 18.0 | 0.00 | 0.00 | 0.00 | 40 | 1017.2 |
| 20260504030538 | 54 | 23 | 8.0 | 14.0 | 0.00 | 0.00 | 0.00 | 40 | 1017.1 |
| 20260504025539 | 54 | 23 | 9.0 | 15.0 | 0.00 | 0.00 | 0.00 | 39 | 1016.8 |
| 20260504024517 | 55 | 23 | 10.0 | 18.0 | 0.00 | 0.00 | 0.00 | 39 | 1016.6 |
| 20260504023517 | 55 | 23 | 9.0 | 12.0 | 0.00 | 0.00 | 0.00 | 38 | 1015.9 |
| 20260504022518 | 56 | 23 | 11.0 | 18.0 | 0.00 | 0.00 | 0.00 | 37 | 1015.9 |
| 20260504021517 | 57 | 23 | 9.0 | 17.0 | 0.00 | 0.00 | 0.00 | 37 | 1015.5 |
| 20260504020518 | 57 | 23 | 12.0 | 20.0 | 0.00 | 0.00 | 0.00 | 36 | 1015.7 |
| 20260504015518 | 58 | 23 | 9.0 | 15.0 | 0.00 | 0.00 | 0.00 | 36 | 1015.0 |
| 20260504014518 | 58 | 23 | 9.0 | 15.0 | 0.00 | 0.00 | 0.00 | 36 | 1014.7 |
| 20260504013519 | 58 | 23 | 11.0 | 17.0 | 0.00 | 0.00 | 0.00 | 36 | 1014.6 |
| 20260504012517 | 59 | 23 | 13.0 | 25.0 | 0.00 | 0.00 | 0.00 | 35 | 1014.3 |
| 20260504011517 | 59 | 45 | 15.0 | 22.0 | 0.00 | 0.00 | 0.00 | 34 | 1014.1 |
| 20260504010517 | 61 | 23 | 16.0 | 25.0 | 0.00 | 0.00 | 0.00 | 34 | 1014.4 |
| 20260504005517 | 62 | 23 | 12.0 | 21.0 | 0.00 | 0.00 | 0.00 | 34 | 1014.2 |
| 20260504004522 | 63 | 23 | 10.0 | 23.0 | 0.00 | 0.00 | 0.00 | 33 | 1014.2 |
| 20260504003518 | 63 | 23 | 11.0 | 19.0 | 0.00 | 0.00 | 0.00 | 34 | 1014.1 |
| 20260504002517 | 64 | 0 | 11.0 | 21.0 | 0.00 | 0.00 | 0.00 | 33 | 1013.8 |
| 20260504001517 | 64 | 23 | 11.0 | 22.0 | 0.00 | 0.00 | 0.00 | 33 | 1013.7 |
| 20260504000518 | 65 | 0 | 10.0 | 17.0 | 0.00 | 0.00 | 0.00 | 32 | 1013.6 |
| 20260503235522 | 66 | 0 | 12.0 | 21.0 | 0.00 | 0.00 | 0.00 | 31 | 1013.7 |
| 20260503234517 | 66 | 0 | 9.0 | 15.0 | 0.00 | 0.00 | 0.00 | 31 | 1013.3 |
| 20260503233517 | 66 | 338 | 10.0 | 24.0 | 0.00 | 0.00 | 0.00 | 32 | 1013.5 |
| 20260503232518 | 66 | 0 | 10.0 | 17.0 | 0.00 | 0.00 | 0.00 | 33 | 1013.5 |
| 20260503231517 | 65 | 0 | 10.0 | 17.0 | 0.00 | 0.00 | 0.00 | 32 | 1013.5 |
| 20260503230517 | 66 | 0 | 11.0 | 19.0 | 0.00 | 0.00 | 0.00 | 32 | 1013.6 |
| 20260503225517 | 65 | 0 | 9.0 | 18.0 | 0.00 | 0.00 | 0.00 | 32 | 1013.4 |
| 20260503224538 | 65 | 338 | 10.0 | 16.0 | 0.00 | 0.00 | 0.00 | 32 | 1013.7 |
| 20260503223517 | 65 | 338 | 13.0 | 21.0 | 0.00 | 0.00 | 0.00 | 32 | 1013.4 |
| 20260503222517 | 66 | 0 | 12.0 | 22.0 | 0.00 | 0.00 | 0.00 | 32 | 1013.4 |
| 20260503221517 | 65 | 0 | 10.0 | 18.0 | 0.00 | 0.00 | 0.00 | 32 | 1013.6 |
| 20260503220517 | 65 | 338 | 12.0 | 19.0 | 0.00 | 0.00 | 0.00 | 32 | 1013.6 |
| 20260503215538 | 66 | 0 | 11.0 | 21.0 | 0.00 | 0.00 | 0.00 | 31 | 1013.7 |
| 20260503214538 | 66 | 0 | 10.0 | 21.0 | 0.00 | 0.00 | 0.00 | 31 | 1013.5 |
| 20260503213517 | 67 | 0 | 11.0 | 18.0 | 0.00 | 0.00 | 0.00 | 30 | 1013.8 |
| 20260503212517 | 67 | 0 | 10.0 | 17.0 | 0.00 | 0.00 | 0.00 | 30 | 1013.7 |
| 20260503211518 | 69 | 23 | 12.0 | 20.0 | 0.00 | 0.00 | 0.00 | 28 | 1013.8 |
| 20260503210538 | 69 | 0 | 10.0 | 18.0 | 0.00 | 0.00 | 0.00 | 26 | 1013.7 |
| 20260503205519 | 69 | 0 | 8.0 | 15.0 | 0.00 | 0.00 | 0.00 | 27 | 1013.9 |
| 20260503204518 | 69 | 338 | 7.0 | 14.0 | 0.00 | 0.00 | 0.00 | 27 | 1014.0 |
| 20260503203518 | 69 | 315 | 9.0 | 18.0 | 0.00 | 0.00 | 0.00 | 27 | 1014.2 |
| 20260503202518 | 68 | 315 | 7.0 | 13.0 | 0.00 | 0.00 | 0.00 | 29 | 1014.2 |
| 20260503201517 | 68 | 315 | 9.0 | 17.0 | 0.00 | 0.00 | 0.00 | 28 | 1014.6 |
| 20260503200517 | 68 | 23 | 11.0 | 17.0 | 0.00 | 0.00 | 0.00 | 28 | 1014.7 |
| 20260503195517 | 68 | 293 | 10.0 | 20.0 | 0.00 | 0.00 | 0.00 | 28 | 1014.9 |
| 20260503194517 | 67 | 338 | 10.0 | 21.0 | 0.00 | 0.00 | 0.00 | 28 | 1015.0 |
| 20260503193517 | 66 | 0 | 8.0 | 15.0 | 0.00 | 0.00 | 0.00 | 30 | 1014.8 |
| 20260503192517 | 66 | 338 | 11.0 | 18.0 | 0.00 | 0.00 | 0.00 | 29 | 1015.3 |
| 20260503191517 | 66 | 315 | 10.0 | 17.0 | 0.00 | 0.00 | 0.00 | 30 | 1015.2 |
| 20260503190518 | 65 | 0 | 10.0 | 23.0 | 0.00 | 0.00 | 0.00 | 30 | 1015.2 |
| 20260503185517 | 65 | 315 | 8.0 | 17.0 | 0.00 | 0.00 | 0.00 | 30 | 1015.4 |
| 20260503184517 | 65 | 338 | 9.0 | 21.0 | 0.00 | 0.00 | 0.00 | 30 | 1015.6 |
| 20260503183517 | 64 | 0 | 8.0 | 18.0 | 0.00 | 0.00 | 0.00 | 30 | 1015.5 |
| 20260503182517 | 64 | 338 | 9.0 | 17.0 | 0.00 | 0.00 | 0.00 | 32 | 1015.9 |
| 20260503181517 | 64 | 0 | 11.0 | 17.0 | 0.00 | 0.00 | 0.00 | 31 | 1016.1 |
| 20260503180518 | 64 | 338 | 9.0 | 16.0 | 0.00 | 0.00 | 0.00 | 30 | 1015.9 |
| 20260503175517 | 64 | 338 | 10.0 | 17.0 | 0.00 | 0.00 | 0.00 | 31 | 1016.0 |
| 20260503174517 | 64 | 338 | 8.0 | 16.0 | 0.00 | 0.00 | 0.00 | 31 | 1016.2 |
| 20260503173517 | 63 | 315 | 8.0 | 17.0 | 0.00 | 0.00 | 0.00 | 31 | 1016.2 |
| 20260503172516 | 63 | 338 | 9.0 | 15.0 | 0.00 | 0.00 | 0.00 | 31 | 1016.4 |
| 20260503171638 | 63 | 338 | 12.0 | 22.0 | 0.00 | 0.00 | 0.00 | 31 | 1017.1 |
| 20260503170517 | 63 | 0 | 11.0 | 20.0 | 0.00 | 0.00 | 0.00 | 32 | 1017.1 |
| 20260503150516 | 57 | 270 | 6.0 | 10.0 | 0.00 | 0.00 | 0.00 | 34 | 1017.3 |
| 20260503130516 | 48 | 248 | 4.0 | 7.0 | 0.00 | 0.00 | 0.00 | 41 | 1017.5 |
| 20260503110517 | 45 | 248 | 6.0 | 9.0 | 0.00 | 0.00 | 0.00 | 40 | 1017.9 |
| 20260503081516 | 47 | 270 | 5.0 | 8.0 | 0.00 | 0.00 | 0.00 | 40 | 1017.6 |
| 20260503080517 | 47 | 248 | 6.0 | 8.0 | 0.00 | 0.00 | 0.00 | 40 | 1017.7 |
| 20260503072516 | 48 | 270 | 6.0 | 10.0 | 0.00 | 0.00 | 0.00 | 40 | 1017.5 |
| 20260503071517 | 47 | 270 | 6.0 | 10.0 | 0.00 | 0.00 | 0.00 | 40 | 1017.2 |
| 20260503070516 | 47 | 270 | 6.0 | 11.0 | 0.00 | 0.00 | 0.00 | 40 | 1017.2 |
| 20260503054517 | 51 | 270 | 6.0 | 10.0 | 0.00 | 0.00 | 0.00 | 38 | 1017.1 |
| 20260503053518 | 51 | 270 | 7.0 | 10.0 | 0.00 | 0.00 | 0.00 | 37 | 1016.8 |
| 20260503052519 | 52 | 270 | 6.0 | 10.0 | 0.00 | 0.00 | 0.00 | 36 | 1016.9 |
| 20260503051559 | 53 | 270 | 7.0 | 12.0 | 0.00 | 0.00 | 0.00 | 35 | 1017.1 |
| 20260503050518 | 53 | 270 | 8.0 | 12.0 | 0.00 | 0.00 | 0.00 | 35 | 1017.1 |
| 20260503045517 | 54 | 270 | 7.0 | 11.0 | 0.00 | 0.00 | 0.00 | 36 | 1017.1 |
| 20260503044518 | 55 | 270 | 6.0 | 11.0 | 0.00 | 0.00 | 0.00 | 36 | 1017.1 |
| 20260503043517 | 55 | 270 | 7.0 | 11.0 | 0.00 | 0.00 | 0.00 | 36 | 1016.9 |
| 20260503042517 | 54 | 270 | 6.0 | 10.0 | 0.00 | 0.00 | 0.00 | 41 | 1016.7 |
| 20260503041517 | 55 | 270 | 4.0 | 7.0 | 0.00 | 0.00 | 0.00 | 46 | 1016.9 |
| 20260503040518 | 56 | 225 | 3.0 | 5.0 | 0.00 | 0.00 | 0.00 | 48 | 1017.0 |